Погода в Кумкургане

Узбекистан     37°49′31″N   67°35′30″E
темп.,
°C
ветер,
м/с
пор.,
м/с
влажн.,
%
обл.,
%
осадки,
мм/ч
давл.,
гПа
погр.,
м
1 марта, пн
пн123:00+7ю11390 0.0 101922
02:00+8св23350 0.0 101922
05:00+7св34399 0.0 101936
08:00+7св453956 0.0 101979
11:00+15св342428 0.0 1019420
14:00+18в11160 0.0 1019929
17:00+18ююв11160 0.0 1018843
20:00+12ююв123033 0.0 101923
2 марта, вт
вт223:00+11ссв113256 0.0 102023
02:00+11св443191 0.0 102051
05:00+10св453196 0.0 101962
08:00+12св4529100 0.0 102089
11:00+17всв3320100 0.0 1020334
14:00+19з1116100 0.0 1019666
17:00+19зсз3320100 0.0 10191736
20:00+15ссз5941100 0.0 1022258
3 марта, ср
ср323:00+14ссв6947100 0.0 1022173
02:00+12св8135675 0.0 1021335
05:00+10ссв6125948 0.0 1021303
08:00+11ссв596087 0.0 1021268
11:00+16св444285 0.0 1021653
14:00+18св113312 0.0 10191673
17:00+18с00316 0.0 10181796
20:00+14ссв22425 0.0 101823
4 марта, чт
чт423:00+13ссв6105216 0.0 1018201
02:00+12св6115221 0.0 1016237
05:00+12св475255 0.0 1015132
08:00+12св364965 0.0 1016154
11:00+18св663542 0.0 1017774
14:00+21св343054 0.0 10171819
17:00+20св543446 0.0 1017983
20:00+15св465527 0.0 1018143
5 марта, пт
пт523:00+14ссв445618 0.0 102069
02:00+12св45590 0.0 102178
05:00+12всв465924 0.0 1023113
08:00+11ю565985 0.0 1025317
11:00+14юв125179 0.0 1024628
14:00+18вюв33390 0.0 10201071
17:00+18св343923 0.0 10181106
20:00+15св51055100 0.0 1016322